| time (UTC) | temp F | wind direction | speed MPH | gust MPH | rain 1hr in | rain 24hr in | rain mn in | humidity % | barometer mb |
| 20260904171032 | 55 | 79 | 0.0 | 0.0 | 0.00 | 0.00 | 0.00 | 85 | 997.1 |
| 20260904170533 | 56 | 79 | 0.0 | 0.0 | 0.00 | 0.00 | 0.00 | 85 | 996.9 |
| 20260904170033 | 56 | 79 | 0.0 | 0.0 | 0.00 | 0.00 | 0.00 | 84 | 997.1 |
| 20260904165545 | 56 | 79 | 0.0 | 0.0 | 0.00 | 0.00 | 0.00 | 84 | 997.0 |
| 20260904164530 | 57 | 49 | 0.0 | 0.0 | 0.00 | 0.00 | 0.00 | 83 | 997.1 |
| 20260904163528 | 57 | 49 | 0.0 | 0.0 | 0.00 | 0.00 | 0.00 | 82 | 997.1 |
| 20260904162518 | 58 | 49 | 0.0 | 0.0 | 0.00 | 0.00 | 0.00 | 82 | 997.2 |
| 20260904162017 | 58 | 47 | 0.0 | 1.0 | 0.00 | 0.00 | 0.00 | 82 | 997.2 |
| 20260904161518 | 58 | 47 | 0.0 | 1.0 | 0.00 | 0.00 | 0.00 | 81 | 997.2 |
| 20260904161026 | 59 | 37 | 0.0 | 1.0 | 0.00 | 0.00 | 0.00 | 81 | 997.3 |
| 20260904160017 | 59 | 104 | 0.0 | 1.0 | 0.00 | 0.00 | 0.00 | 81 | 997.2 |
| 20260904155514 | 59 | 104 | 0.0 | 1.0 | 0.00 | 0.00 | 0.00 | 81 | 997.4 |
| 20260904155014 | 59 | 90 | 0.0 | 2.0 | 0.00 | 0.00 | 0.00 | 81 | 997.3 |
| 20260904154511 | 59 | 90 | 0.0 | 2.0 | 0.00 | 0.00 | 0.00 | 80 | 997.4 |
| 20260904154009 | 59 | 48 | 0.0 | 2.0 | 0.00 | 0.00 | 0.00 | 80 | 997.3 |
| 20260904153538 | 59 | 54 | 0.0 | 2.0 | 0.00 | 0.00 | 0.00 | 80 | 997.4 |
| 20260904152506 | 59 | 79 | 0.0 | 2.0 | 0.00 | 0.00 | 0.00 | 79 | 997.4 |
| 20260904152023 | 59 | 92 | 0.0 | 2.0 | 0.00 | 0.00 | 0.00 | 78 | 997.5 |
| 20260904151007 | 59 | 47 | 1.0 | 2.0 | 0.00 | 0.00 | 0.00 | 77 | 997.6 |
| 20260904150501 | 60 | 27 | 0.0 | 3.0 | 0.00 | 0.00 | 0.00 | 77 | 997.6 |
| 20260904150003 | 60 | 20 | 0.0 | 4.0 | 0.00 | 0.00 | 0.00 | 76 | 997.6 |
| 20260904145501 | 60 | 21 | 1.0 | 4.0 | 0.00 | 0.00 | 0.00 | 75 | 997.6 |
| 20260904145000 | 60 | 73 | 0.0 | 3.0 | 0.00 | 0.00 | 0.00 | 75 | 997.5 |
| 20260904144501 | 60 | 0 | 1.0 | 3.0 | 0.00 | 0.00 | 0.00 | 76 | 997.6 |
| 20260904143457 | 60 | 357 | 1.0 | 3.0 | 0.00 | 0.00 | 0.00 | 74 | 997.7 |
| 20260904142458 | 61 | 35 | 1.0 | 3.0 | 0.00 | 0.00 | 0.00 | 71 | 997.6 |
| 20260904141956 | 61 | 39 | 1.0 | 3.0 | 0.00 | 0.00 | 0.00 | 70 | 997.7 |
| 20260904141501 | 61 | 154 | 1.0 | 3.0 | 0.00 | 0.00 | 0.00 | 70 | 997.6 |
| 20260904140959 | 62 | 31 | 2.0 | 3.0 | 0.00 | 0.00 | 0.00 | 72 | 997.7 |
| 20260904140458 | 62 | 151 | 0.0 | 4.0 | 0.00 | 0.00 | 0.00 | 72 | 997.7 |
| 20260904135957 | 62 | 125 | 2.0 | 5.0 | 0.00 | 0.00 | 0.00 | 71 | 997.8 |
| 20260904135456 | 62 | 162 | 1.0 | 5.0 | 0.00 | 0.00 | 0.00 | 71 | 997.7 |
| 20260904135002 | 62 | 75 | 1.0 | 3.0 | 0.00 | 0.00 | 0.00 | 69 | 997.7 |
| 20260904134458 | 62 | 180 | 0.0 | 0.0 | 0.00 | 0.00 | 0.00 | 68 | 997.7 |
| 20260904133956 | 62 | 196 | 0.0 | 2.0 | 0.00 | 0.00 | 0.00 | 65 | 997.7 |
| 20260904133454 | 62 | 196 | 0.0 | 2.0 | 0.00 | 0.00 | 0.00 | 68 | 997.8 |
| 20260904133027 | 62 | 103 | 0.0 | 2.0 | 0.00 | 0.00 | 0.00 | 65 | 997.7 |
| 20260904131953 | 61 | 113 | 0.0 | 2.0 | 0.00 | 0.00 | 0.00 | 67 | 997.8 |
| 20260904131455 | 61 | 154 | 0.0 | 3.0 | 0.00 | 0.00 | 0.00 | 65 | 997.8 |
| 20260904130954 | 61 | 66 | 1.0 | 4.0 | 0.00 | 0.00 | 0.00 | 67 | 997.8 |
| 20260904130453 | 61 | 99 | 0.0 | 4.0 | 0.00 | 0.00 | 0.00 | 69 | 997.8 |
| 20260904125955 | 61 | 1 | 0.0 | 2.0 | 0.00 | 0.00 | 0.00 | 70 | 997.8 |
| 20260904125456 | 61 | 151 | 0.0 | 1.0 | 0.00 | 0.00 | 0.00 | 73 | 997.8 |
| 20260904124958 | 61 | 316 | 0.0 | 1.0 | 0.00 | 0.00 | 0.00 | 70 | 997.9 |
| 20260904124456 | 61 | 319 | 0.0 | 2.0 | 0.00 | 0.00 | 0.00 | 70 | 998.0 |
| 20260904123955 | 61 | 344 | 0.0 | 2.0 | 0.00 | 0.00 | 0.00 | 69 | 998.1 |
| 20260904123457 | 62 | 358 | 0.0 | 2.0 | 0.00 | 0.00 | 0.00 | 70 | 998.0 |
| 20260904122952 | 62 | 333 | 0.0 | 3.0 | 0.00 | 0.00 | 0.00 | 67 | 998.0 |
| 20260904122454 | 62 | 281 | 1.0 | 3.0 | 0.00 | 0.00 | 0.00 | 65 | 998.0 |
| 20260904121952 | 62 | 32 | 1.0 | 3.0 | 0.00 | 0.00 | 0.00 | 65 | 997.9 |
| 20260904121453 | 63 | 283 | 1.0 | 2.0 | 0.00 | 0.00 | 0.00 | 63 | 997.9 |
| 20260904120954 | 63 | 336 | 0.0 | 2.0 | 0.00 | 0.00 | 0.00 | 63 | 997.8 |
| 20260904120453 | 63 | 336 | 0.0 | 2.0 | 0.00 | 0.00 | 0.00 | 63 | 997.8 |
| 20260904115952 | 63 | 52 | 0.0 | 3.0 | 0.00 | 0.00 | 0.00 | 61 | 997.7 |
| 20260904115455 | 63 | 52 | 0.0 | 3.0 | 0.00 | 0.00 | 0.00 | 60 | 997.7 |
| 20260904114958 | 63 | 316 | 0.0 | 1.0 | 0.00 | 0.00 | 0.00 | 59 | 997.9 |
| 20260904114457 | 63 | 316 | 0.0 | 1.0 | 0.00 | 0.00 | 0.00 | 58 | 997.8 |
| 20260904113955 | 63 | 341 | 0.0 | 1.0 | 0.00 | 0.00 | 0.00 | 60 | 997.8 |
| 20260904113455 | 63 | 341 | 0.0 | 1.0 | 0.00 | 0.00 | 0.00 | 60 | 997.8 |
| 20260904112958 | 63 | 0 | 0.0 | 1.0 | 0.00 | 0.00 | 0.00 | 59 | 997.8 |
| 20260904112459 | 63 | 0 | 0.0 | 0.0 | 0.00 | 0.00 | 0.00 | 61 | 997.8 |
| 20260904111950 | 63 | 0 | 0.0 | 2.0 | 0.00 | 0.00 | 0.00 | 63 | 997.9 |
| 20260904111500 | 63 | 0 | 0.0 | 2.0 | 0.00 | 0.00 | 0.00 | 60 | 998.0 |
| 20260904110444 | 62 | 14 | 0.0 | 3.0 | 0.00 | 0.00 | 0.00 | 61 | 997.9 |
| 20260904105944 | 62 | 286 | 0.0 | 2.0 | 0.00 | 0.00 | 0.00 | 63 | 997.9 |
| 20260904105445 | 61 | 298 | 0.0 | 2.0 | 0.00 | 0.00 | 0.00 | 63 | 997.9 |
| 20260904104441 | 61 | 162 | 0.0 | 0.0 | 0.00 | 0.00 | 0.00 | 66 | 998.0 |
| 20260904103941 | 62 | 164 | 0.0 | 0.0 | 0.00 | 0.00 | 0.00 | 66 | 998.0 |
| 20260904103438 | 62 | 162 | 0.0 | 0.0 | 0.00 | 0.00 | 0.00 | 67 | 998.0 |
| 20260904102939 | 63 | 162 | 0.0 | 1.0 | 0.00 | 0.00 | 0.00 | 66 | 998.0 |
| 20260904102439 | 64 | 162 | 0.0 | 3.0 | 0.00 | 0.00 | 0.00 | 64 | 998.1 |
| 20260904101931 | 64 | 162 | 1.0 | 5.0 | 0.00 | 0.00 | 0.00 | 60 | 998.1 |
| 20260904101436 | 65 | 72 | 3.0 | 5.0 | 0.00 | 0.00 | 0.00 | 58 | 998.0 |
| 20260904100932 | 64 | 138 | 0.0 | 5.0 | 0.00 | 0.00 | 0.00 | 61 | 998.2 |
| 20260904095929 | 65 | 247 | 0.0 | 3.0 | 0.00 | 0.00 | 0.00 | 59 | 998.3 |
| 20260904095430 | 65 | 202 | 1.0 | 3.0 | 0.00 | 0.00 | 0.00 | 56 | 998.3 |
| 20260904094929 | 65 | 78 | 1.0 | 3.0 | 0.00 | 0.00 | 0.00 | 55 | 998.3 |
| 20260904094429 | 65 | 93 | 0.0 | 3.0 | 0.00 | 0.00 | 0.00 | 58 | 998.3 |
| 20260904093932 | 66 | 75 | 1.0 | 3.0 | 0.00 | 0.00 | 0.00 | 58 | 998.4 |
| 20260904093430 | 65 | 20 | 2.0 | 3.0 | 0.00 | 0.00 | 0.00 | 58 | 998.6 |
| 20260904092931 | 65 | 164 | 2.0 | 3.0 | 0.00 | 0.00 | 0.00 | 61 | 998.5 |
| 20260904092440 | 65 | 45 | 1.0 | 3.0 | 0.00 | 0.00 | 0.00 | 60 | 998.5 |
| 20260904091431 | 64 | 94 | 1.0 | 2.0 | 0.00 | 0.00 | 0.00 | 65 | 998.5 |
| 20260904090932 | 63 | 165 | 0.0 | 2.0 | 0.00 | 0.00 | 0.00 | 66 | 998.6 |
| 20260904090429 | 62 | 155 | 0.0 | 2.0 | 0.00 | 0.00 | 0.00 | 67 | 998.6 |
| 20260904085930 | 61 | 220 | 0.0 | 2.0 | 0.00 | 0.00 | 0.00 | 72 | 998.6 |
| 20260904085430 | 62 | 220 | 0.0 | 2.0 | 0.00 | 0.00 | 0.00 | 69 | 998.6 |
| 20260904084929 | 62 | 127 | 0.0 | 2.0 | 0.00 | 0.00 | 0.00 | 67 | 998.7 |
| 20260904084430 | 62 | 71 | 1.0 | 2.0 | 0.00 | 0.00 | 0.00 | 68 | 998.7 |
| 20260904083934 | 62 | 87 | 1.0 | 3.0 | 0.00 | 0.00 | 0.00 | 67 | 998.6 |
| 20260904083430 | 63 | 62 | 1.0 | 3.0 | 0.00 | 0.00 | 0.00 | 66 | 998.7 |
| 20260904082909 | 61 | 140 | 0.0 | 1.0 | 0.00 | 0.00 | 0.00 | 74 | 998.7 |
| 20260904082407 | 61 | 158 | 0.0 | 1.0 | 0.00 | 0.00 | 0.00 | 77 | 998.7 |
| 20260904081902 | 62 | 168 | 0.0 | 1.0 | 0.00 | 0.00 | 0.00 | 75 | 998.6 |
| 20260904081402 | 62 | 212 | 0.0 | 4.0 | 0.00 | 0.00 | 0.00 | 74 | 998.6 |
| 20260904080903 | 62 | 148 | 1.0 | 4.0 | 0.00 | 0.00 | 0.00 | 76 | 998.7 |
| 20260904080403 | 61 | 358 | 0.0 | 2.0 | 0.00 | 0.00 | 0.00 | 76 | 998.6 |
| 20260904075901 | 61 | 182 | 0.0 | 2.0 | 0.00 | 0.00 | 0.00 | 78 | 998.8 |
| 20260904075402 | 61 | 58 | 0.0 | 3.0 | 0.00 | 0.00 | 0.00 | 79 | 998.8 |
| 20260904074901 | 62 | 118 | 1.0 | 3.0 | 0.00 | 0.00 | 0.00 | 77 | 998.8 |
| 20260904074407 | 61 | 51 | 2.0 | 3.0 | 0.00 | 0.00 | 0.00 | 80 | 998.8 |
| 20260904073910 | 61 | 117 | 1.0 | 3.0 | 0.00 | 0.00 | 0.00 | 80 | 998.8 |
| 20260904073402 | 60 | 56 | 1.0 | 3.0 | 0.00 | 0.00 | 0.00 | 80 | 998.9 |
| 20260904072901 | 60 | 137 | 0.0 | 3.0 | 0.00 | 0.00 | 0.00 | 85 | 998.9 |
| 20260904072404 | 58 | 116 | 1.0 | 3.0 | 0.00 | 0.00 | 0.00 | 86 | 999.0 |
| 20260904071904 | 59 | 173 | 0.0 | 1.0 | 0.00 | 0.00 | 0.00 | 84 | 999.1 |
| 20260904071401 | 59 | 173 | 0.0 | 2.0 | 0.00 | 0.00 | 0.00 | 83 | 999.0 |
| 20260904070901 | 59 | 175 | 1.0 | 2.0 | 0.00 | 0.00 | 0.00 | 84 | 999.1 |
| 20260904070403 | 58 | 175 | 0.0 | 2.0 | 0.00 | 0.00 | 0.00 | 87 | 999.1 |
| 20260904065906 | 56 | 45 | 0.0 | 1.0 | 0.00 | 0.00 | 0.00 | 88 | 999.1 |
| 20260904065403 | 55 | 45 | 0.0 | 0.0 | 0.00 | 0.00 | 0.00 | 88 | 999.2 |
| 20260904064903 | 54 | 45 | 0.0 | 0.0 | 0.00 | 0.00 | 0.00 | 89 | 999.3 |
| 20260904064404 | 54 | 45 | 0.0 | 0.0 | 0.00 | 0.00 | 0.00 | 91 | 999.4 |
| 20260904063857 | 53 | 45 | 0.0 | 0.0 | 0.00 | 0.00 | 0.00 | 90 | 999.5 |
| 20260904063419 | 51 | 45 | 0.0 | 0.0 | 0.00 | 0.00 | 0.00 | 89 | 999.6 |
| 20260904062355 | 51 | 45 | 0.0 | 0.0 | 0.00 | 0.00 | 0.00 | 92 | 999.6 |
| 20260904061854 | 50 | 45 | 0.0 | 0.0 | 0.00 | 0.00 | 0.00 | 91 | 999.5 |
| 20260904061354 | 50 | 45 | 0.0 | 0.0 | 0.00 | 0.00 | 0.00 | 91 | 999.6 |
| 20260904060853 | 49 | 45 | 0.0 | 0.0 | 0.00 | 0.00 | 0.00 | 92 | 999.6 |
| 20260904060355 | 49 | 45 | 0.0 | 0.0 | 0.00 | 0.00 | 0.00 | 92 | 999.6 |
| 20260904055357 | 48 | 45 | 0.0 | 0.0 | 0.00 | 0.00 | 0.00 | 92 | 999.6 |
| 20260904054857 | 48 | 45 | 0.0 | 0.0 | 0.00 | 0.00 | 0.00 | 93 | 999.6 |
| 20260904054355 | 47 | 45 | 0.0 | 0.0 | 0.00 | 0.00 | 0.00 | 93 | 999.7 |
| 20260904053855 | 47 | 45 | 0.0 | 0.0 | 0.00 | 0.00 | 0.00 | 92 | 999.6 |
| 20260904053357 | 47 | 45 | 0.0 | 0.0 | 0.00 | 0.00 | 0.00 | 92 | 999.6 |
| 20260904052856 | 46 | 45 | 0.0 | 0.0 | 0.00 | 0.00 | 0.00 | 92 | 999.7 |
| 20260904052356 | 46 | 45 | 0.0 | 0.0 | 0.00 | 0.00 | 0.00 | 92 | 999.7 |
| 20260904051855 | 46 | 45 | 0.0 | 0.0 | 0.00 | 0.00 | 0.00 | 92 | 999.8 |
| 20260904051355 | 46 | 45 | 0.0 | 0.0 | 0.00 | 0.00 | 0.00 | 92 | 999.8 |
| 20260904050856 | 46 | 45 | 0.0 | 0.0 | 0.00 | 0.00 | 0.00 | 92 | 999.9 |
| 20260904050356 | 46 | 45 | 0.0 | 0.0 | 0.00 | 0.00 | 0.00 | 92 | 999.9 |
| 20260904045855 | 46 | 45 | 0.0 | 0.0 | 0.00 | 0.00 | 0.00 | 93 | 999.8 |
| 20260904044856 | 45 | 45 | 0.0 | 0.0 | 0.00 | 0.00 | 0.00 | 93 | 999.9 |
| 20260904043857 | 45 | 45 | 0.0 | 0.0 | 0.00 | 0.00 | 0.00 | 92 | 1000.0 |
| 20260904043406 | 45 | 45 | 0.0 | 0.0 | 0.00 | 0.00 | 0.00 | 92 | 1000.2 |
| 20260904042357 | 45 | 45 | 0.0 | 0.0 | 0.00 | 0.00 | 0.00 | 92 | 1000.3 |
| 20260904041856 | 44 | 45 | 0.0 | 0.0 | 0.00 | 0.00 | 0.00 | 91 | 1000.4 |
| 20260904041355 | 44 | 45 | 0.0 | 0.0 | 0.00 | 0.00 | 0.00 | 91 | 1000.4 |
| 20260904040855 | 44 | 45 | 0.0 | 0.0 | 0.00 | 0.00 | 0.00 | 91 | 1000.4 |
| 20260904040354 | 44 | 45 | 0.0 | 0.0 | 0.00 | 0.00 | 0.00 | 91 | 1000.4 |
| 20260904035902 | 44 | 45 | 0.0 | 0.0 | 0.00 | 0.00 | 0.00 | 91 | 1000.5 |
| 20260904035403 | 44 | 45 | 0.0 | 0.0 | 0.00 | 0.00 | 0.00 | 91 | 1000.6 |
| 20260904034857 | 44 | 45 | 0.0 | 0.0 | 0.00 | 0.00 | 0.00 | 91 | 1000.6 |
| 20260904034359 | 44 | 45 | 0.0 | 0.0 | 0.00 | 0.00 | 0.00 | 91 | 1000.8 |
| 20260904033416 | 44 | 45 | 0.0 | 0.0 | 0.00 | 0.00 | 0.00 | 90 | 1001.0 |
| 20260904031849 | 44 | 45 | 0.0 | 0.0 | 0.00 | 0.00 | 0.00 | 90 | 1001.0 |
| 20260904031349 | 44 | 45 | 0.0 | 0.0 | 0.00 | 0.00 | 0.00 | 90 | 1001.1 |
| 20260904030848 | 44 | 45 | 0.0 | 0.0 | 0.00 | 0.00 | 0.00 | 90 | 1001.2 |
| 20260904030336 | 44 | 45 | 0.0 | 0.0 | 0.00 | 0.00 | 0.00 | 90 | 1001.3 |
| 20260904025835 | 44 | 45 | 0.0 | 0.0 | 0.00 | 0.00 | 0.00 | 90 | 1001.3 |
| 20260904025333 | 44 | 45 | 0.0 | 0.0 | 0.00 | 0.00 | 0.00 | 90 | 1001.4 |
| 20260904024830 | 44 | 45 | 0.0 | 0.0 | 0.00 | 0.00 | 0.00 | 90 | 1001.4 |
| 20260904024331 | 44 | 45 | 0.0 | 0.0 | 0.00 | 0.00 | 0.00 | 90 | 1001.5 |
| 20260904023812 | 44 | 45 | 0.0 | 0.0 | 0.00 | 0.00 | 0.00 | 90 | 1001.6 |
| 20260904023309 | 44 | 45 | 0.0 | 0.0 | 0.00 | 0.00 | 0.00 | 90 | 1001.7 |
| 20260904022305 | 44 | 45 | 0.0 | 0.0 | 0.00 | 0.00 | 0.00 | 90 | 1001.7 |
| 20260904021801 | 44 | 45 | 0.0 | 0.0 | 0.00 | 0.00 | 0.00 | 90 | 1001.8 |
| 20260904021301 | 44 | 45 | 0.0 | 0.0 | 0.00 | 0.00 | 0.00 | 90 | 1001.8 |
| 20260904020800 | 44 | 45 | 0.0 | 0.0 | 0.00 | 0.00 | 0.00 | 90 | 1001.8 |
| 20260904020303 | 44 | 45 | 0.0 | 0.0 | 0.00 | 0.00 | 0.00 | 89 | 1001.8 |
| 20260904015758 | 44 | 45 | 0.0 | 0.0 | 0.00 | 0.00 | 0.00 | 90 | 1001.9 |
| 20260904015255 | 44 | 45 | 0.0 | 0.0 | 0.00 | 0.00 | 0.00 | 90 | 1001.9 |
| 20260904014807 | 44 | 45 | 0.0 | 0.0 | 0.00 | 0.00 | 0.00 | 90 | 1001.9 |
| 20260904013800 | 45 | 45 | 0.0 | 0.0 | 0.00 | 0.00 | 0.00 | 90 | 1002.0 |
| 20260904013309 | 45 | 45 | 0.0 | 0.0 | 0.00 | 0.00 | 0.00 | 90 | 1002.1 |
| 20260904012302 | 44 | 45 | 0.0 | 0.0 | 0.00 | 0.00 | 0.00 | 90 | 1002.1 |
| 20260904011803 | 45 | 45 | 0.0 | 0.0 | 0.00 | 0.00 | 0.00 | 89 | 1002.2 |
| 20260904011316 | 45 | 45 | 0.0 | 0.0 | 0.00 | 0.00 | 0.00 | 89 | 1002.3 |
| 20260904010305 | 45 | 45 | 0.0 | 0.0 | 0.00 | 0.00 | 0.00 | 90 | 1002.4 |
| 20260904005756 | 45 | 45 | 0.0 | 0.0 | 0.00 | 0.00 | 0.00 | 90 | 1002.4 |
| 20260904005258 | 45 | 45 | 0.0 | 0.0 | 0.00 | 0.00 | 0.00 | 90 | 1002.5 |
| 20260904004755 | 45 | 45 | 0.0 | 0.0 | 0.00 | 0.00 | 0.00 | 90 | 1002.5 |
| 20260904004255 | 45 | 45 | 0.0 | 0.0 | 0.00 | 0.00 | 0.00 | 90 | 1002.8 |
| 20260904003803 | 45 | 45 | 0.0 | 0.0 | 0.00 | 0.00 | 0.00 | 90 | 1002.8 |
| 20260904003255 | 45 | 45 | 0.0 | 0.0 | 0.00 | 0.00 | 0.00 | 89 | 1002.9 |
| 20260904002752 | 45 | 45 | 0.0 | 0.0 | 0.00 | 0.00 | 0.00 | 89 | 1003.0 |
| 20260904002252 | 45 | 45 | 0.0 | 0.0 | 0.00 | 0.00 | 0.00 | 89 | 1003.1 |
| 20260904001754 | 45 | 45 | 0.0 | 0.0 | 0.00 | 0.00 | 0.00 | 89 | 1003.1 |
| 20260904001252 | 45 | 45 | 0.0 | 0.0 | 0.00 | 0.00 | 0.00 | 89 | 1003.1 |
| 20260904000809 | 45 | 45 | 0.0 | 0.0 | 0.00 | 0.00 | 0.00 | 89 | 1003.1 |
| 20260903235756 | 45 | 45 | 0.0 | 0.0 | 0.00 | 0.00 | 0.00 | 89 | 1003.2 |
| 20260903235340 | 45 | 45 | 0.0 | 0.0 | 0.00 | 0.00 | 0.00 | 90 | 1003.2 |
| 20260903233754 | 45 | 45 | 0.0 | 0.0 | 0.00 | 0.00 | 0.00 | 89 | 1003.3 |
| 20260903233254 | 45 | 45 | 0.0 | 0.0 | 0.00 | 0.00 | 0.00 | 89 | 1003.5 |
| 20260903232758 | 45 | 45 | 0.0 | 0.0 | 0.00 | 0.00 | 0.00 | 89 | 1003.4 |
| 20260903232255 | 46 | 45 | 0.0 | 0.0 | 0.00 | 0.00 | 0.00 | 89 | 1003.6 |
| 20260903231756 | 46 | 45 | 0.0 | 0.0 | 0.00 | 0.00 | 0.00 | 89 | 1003.6 |
| 20260903231255 | 46 | 45 | 0.0 | 0.0 | 0.00 | 0.00 | 0.00 | 89 | 1003.6 |
| 20260903230754 | 46 | 45 | 0.0 | 0.0 | 0.00 | 0.00 | 0.00 | 89 | 1003.7 |
| 20260903230255 | 46 | 45 | 0.0 | 0.0 | 0.00 | 0.00 | 0.00 | 89 | 1003.7 |
| 20260903225754 | 46 | 45 | 0.0 | 0.0 | 0.00 | 0.00 | 0.00 | 90 | 1003.7 |
| 20260903225256 | 46 | 45 | 0.0 | 0.0 | 0.00 | 0.00 | 0.00 | 89 | 1003.7 |
| 20260903224811 | 46 | 45 | 0.0 | 0.0 | 0.00 | 0.00 | 0.00 | 89 | 1003.9 |
| 20260903223755 | 46 | 45 | 0.0 | 0.0 | 0.00 | 0.00 | 0.00 | 90 | 1004.0 |
| 20260903223256 | 46 | 45 | 0.0 | 0.0 | 0.00 | 0.00 | 0.00 | 89 | 1004.0 |
| 20260903222754 | 46 | 45 | 0.0 | 0.0 | 0.00 | 0.00 | 0.00 | 89 | 1004.0 |
| 20260903222333 | 46 | 45 | 0.0 | 0.0 | 0.00 | 0.00 | 0.00 | 89 | 1004.0 |
| 20260903220828 | 46 | 45 | 0.0 | 0.0 | 0.00 | 0.00 | 0.00 | 89 | 1004.1 |
| 20260903215742 | 47 | 45 | 0.0 | 0.0 | 0.00 | 0.00 | 0.00 | 89 | 1004.1 |
| 20260903215243 | 47 | 45 | 0.0 | 0.0 | 0.00 | 0.00 | 0.00 | 89 | 1004.2 |
| 20260903214732 | 47 | 45 | 0.0 | 0.0 | 0.00 | 0.00 | 0.00 | 89 | 1004.2 |
| 20260903214231 | 47 | 45 | 0.0 | 0.0 | 0.00 | 0.00 | 0.00 | 89 | 1004.2 |
| 20260903213729 | 47 | 45 | 0.0 | 0.0 | 0.00 | 0.00 | 0.00 | 89 | 1004.3 |
| 20260903213229 | 47 | 45 | 0.0 | 0.0 | 0.00 | 0.00 | 0.00 | 89 | 1004.4 |
| 20260903212733 | 47 | 45 | 0.0 | 0.0 | 0.00 | 0.00 | 0.00 | 88 | 1004.3 |
| 20260903212235 | 47 | 45 | 0.0 | 0.0 | 0.00 | 0.00 | 0.00 | 89 | 1004.4 |
| 20260903211729 | 47 | 45 | 0.0 | 0.0 | 0.00 | 0.00 | 0.00 | 88 | 1004.4 |
| 20260903211225 | 48 | 45 | 0.0 | 0.0 | 0.00 | 0.00 | 0.00 | 88 | 1004.5 |
| 20260903210722 | 48 | 45 | 0.0 | 0.0 | 0.00 | 0.00 | 0.00 | 88 | 1004.4 |
| 20260903210215 | 48 | 45 | 0.0 | 0.0 | 0.00 | 0.00 | 0.00 | 88 | 1004.4 |
| 20260903205713 | 48 | 45 | 0.0 | 0.0 | 0.00 | 0.00 | 0.00 | 88 | 1004.5 |
| 20260903205214 | 48 | 45 | 0.0 | 0.0 | 0.00 | 0.00 | 0.00 | 88 | 1004.6 |
| 20260903204709 | 49 | 45 | 0.0 | 0.0 | 0.00 | 0.00 | 0.00 | 88 | 1004.6 |
| 20260903204209 | 49 | 45 | 0.0 | 0.0 | 0.00 | 0.00 | 0.00 | 88 | 1004.5 |
| 20260903203658 | 49 | 45 | 0.0 | 0.0 | 0.00 | 0.00 | 0.00 | 87 | 1004.6 |
| 20260903203158 | 49 | 45 | 0.0 | 0.0 | 0.00 | 0.00 | 0.00 | 87 | 1004.5 |
| 20260903202701 | 49 | 45 | 0.0 | 0.0 | 0.00 | 0.00 | 0.00 | 87 | 1004.5 |
| 20260903202159 | 49 | 45 | 0.0 | 0.0 | 0.00 | 0.00 | 0.00 | 87 | 1004.6 |
| 20260903201704 | 50 | 45 | 0.0 | 0.0 | 0.00 | 0.00 | 0.00 | 87 | 1004.7 |
| 20260903201159 | 50 | 45 | 0.0 | 0.0 | 0.00 | 0.00 | 0.00 | 87 | 1004.7 |
| 20260903200656 | 50 | 45 | 0.0 | 0.0 | 0.00 | 0.00 | 0.00 | 86 | 1004.8 |
| 20260903200200 | 50 | 45 | 0.0 | 0.0 | 0.00 | 0.00 | 0.00 | 86 | 1004.8 |
| 20260903195653 | 51 | 45 | 0.0 | 0.0 | 0.00 | 0.00 | 0.00 | 86 | 1004.8 |
| 20260903194654 | 51 | 45 | 0.0 | 0.0 | 0.00 | 0.00 | 0.00 | 86 | 1004.9 |
| 20260903194154 | 51 | 45 | 0.0 | 0.0 | 0.00 | 0.00 | 0.00 | 85 | 1004.9 |
| 20260903193658 | 51 | 45 | 0.0 | 0.0 | 0.00 | 0.00 | 0.00 | 85 | 1005.0 |
| 20260903193154 | 51 | 45 | 0.0 | 0.0 | 0.00 | 0.00 | 0.00 | 85 | 1005.0 |
| 20260903192655 | 51 | 45 | 0.0 | 0.0 | 0.00 | 0.00 | 0.00 | 85 | 1005.0 |
| 20260903191654 | 51 | 45 | 0.0 | 1.0 | 0.00 | 0.00 | 0.00 | 84 | 1004.9 |
| 20260903191158 | 51 | 45 | 0.0 | 0.0 | 0.00 | 0.00 | 0.00 | 84 | 1004.9 |
| 20260903190654 | 52 | 45 | 0.0 | 0.0 | 0.00 | 0.00 | 0.00 | 83 | 1004.9 |
| 20260903190154 | 52 | 45 | 0.0 | 0.0 | 0.00 | 0.00 | 0.00 | 83 | 1004.9 |
| 20260903185656 | 52 | 45 | 0.0 | 2.0 | 0.00 | 0.00 | 0.00 | 83 | 1004.9 |
| 20260903185157 | 52 | 45 | 0.0 | 2.0 | 0.00 | 0.00 | 0.00 | 82 | 1005.0 |
| 20260903184154 | 53 | 31 | 0.0 | 0.0 | 0.00 | 0.00 | 0.00 | 82 | 1005.1 |
| 20260903183652 | 53 | 31 | 0.0 | 1.0 | 0.00 | 0.00 | 0.00 | 81 | 1005.1 |
| 20260903183153 | 53 | 31 | 0.0 | 1.0 | 0.00 | 0.00 | 0.00 | 81 | 1005.1 |
| 20260903182650 | 53 | 31 | 0.0 | 2.0 | 0.00 | 0.00 | 0.00 | 81 | 1005.1 |
| 20260903182154 | 53 | 31 | 0.0 | 2.0 | 0.00 | 0.00 | 0.00 | 81 | 1005.1 |
| 20260903181650 | 53 | 86 | 0.0 | 1.0 | 0.00 | 0.00 | 0.00 | 81 | 1005.1 |
| 20260903181150 | 54 | 86 | 0.0 | 0.0 | 0.00 | 0.00 | 0.00 | 80 | 1005.2 |
| 20260903180650 | 54 | 92 | 0.0 | 1.0 | 0.00 | 0.00 | 0.00 | 80 | 1005.2 |
| 20260903180155 | 54 | 86 | 0.0 | 2.0 | 0.00 | 0.00 | 0.00 | 79 | 1005.3 |
| 20260903175657 | 55 | 45 | 0.0 | 2.0 | 0.00 | 0.00 | 0.00 | 79 | 1005.2 |
| 20260903175157 | 55 | 109 | 0.0 | 2.0 | 0.00 | 0.00 | 0.00 | 79 | 1005.2 |
| 20260903174657 | 55 | 24 | 0.0 | 2.0 | 0.00 | 0.00 | 0.00 | 78 | 1005.2 |
| 20260903174158 | 56 | 134 | 0.0 | 1.0 | 0.00 | 0.00 | 0.00 | 77 | 1005.2 |
| 20260903173654 | 56 | 172 | 0.0 | 2.0 | 0.00 | 0.00 | 0.00 | 77 | 1005.2 |
| 20260903173155 | 56 | 31 | 0.0 | 2.0 | 0.00 | 0.00 | 0.00 | 76 | 1005.2 |
| 20260903172657 | 57 | 16 | 0.0 | 2.0 | 0.00 | 0.00 | 0.00 | 75 | 1005.2 |
| 20260903172154 | 57 | 13 | 0.0 | 2.0 | 0.00 | 0.00 | 0.00 | 74 | 1005.2 |
| 20260903171655 | 57 | 10 | 1.0 | 3.0 | 0.00 | 0.00 | 0.00 | 74 | 1005.2 |